EW1953 Weather Reports


time (UTC)temp
C
wind
direction
speed
KPH
gust
KPH
rain 1hr
cm
rain 24hr
cm
rain mn
cm
humidity
%
barometer
mb
20260505165016 11 0.0 0.0 0.00 0.41 0.38 90 1008.3
20260505164051 11 0.0 0.0 0.00 0.41 0.38 89 1008.3
20260505163016 11 0.0 0.0 0.00 0.41 0.38 89 1008.3
20260505162039 11 0.0 0.0 0.00 0.41 0.38 89 1008.4
20260505161015 11 0.0 0.0 0.00 0.41 0.38 89 1008.4
20260505153025 11 0.0 0.0 0.00 0.41 0.38 88 1008.6
20260505152021 11 0.0 0.0 0.00 0.41 0.38 88 1008.6
20260505151030 11 0.0 0.0 0.00 0.43 0.38 88 1008.6
20260505125034 11 0.0 0.0 0.00 0.43 0.38 88 1009.3
20260505124020 11 0.0 0.0 0.00 0.43 0.38 88 1009.3
20260505123016 11 0.0 0.0 0.00 0.43 0.38 88 1009.3
20260505122021 11 0.0 0.0 0.00 0.43 0.38 87 1009.3
20260505121019 11 0.0 0.0 0.00 0.43 0.38 88 1009.4
20260505120016 11 0.0 0.0 0.00 0.43 0.38 88 1009.4
20260505115016 11 0.0 0.0 0.00 0.43 0.38 88 1009.4
20260505114046 11 0.0 0.0 0.00 0.43 0.38 88 1009.5
20260505113041 11 0.0 0.0 0.00 0.43 0.38 88 1009.6
20260505112018 11 0.0 0.0 0.00 0.43 0.38 87 1009.6
20260505111017 11 0.0 0.0 0.00 0.43 0.38 87 1009.6
20260505102040 11 0.0 0.0 0.03 0.43 0.38 87 1009.6
20260505101026 11 0.0 0.0 0.03 0.43 0.38 88 1009.7
20260505100025 11 0.0 0.0 0.03 0.43 0.38 88 1009.8
20260505095017 11 0.0 0.0 0.03 0.43 0.38 88 1009.8
20260505094023 11 0.0 0.0 0.03 0.43 0.36 87 1009.8
20260505093022 11 0.0 0.0 0.03 0.43 0.36 88 1009.8
20260505092021 11 0.0 0.0 0.05 0.43 0.36 88 1009.8
20260505091021 11 0.0 0.0 0.05 0.43 0.36 88 1009.8
20260505090020 11 0.0 0.0 0.05 0.43 0.36 88 1009.8
20260505085045 11 0.0 0.0 0.05 0.43 0.36 87 1009.8
20260505084020 11 0.0 0.0 0.03 0.41 0.33 87 1009.8
20260505083020 11 0.0 0.0 0.03 0.41 0.33 87 1009.9
20260505082018 11 0.0 0.0 0.00 0.38 0.33 88 1009.8
20260505081016 11 0.0 0.0 0.00 0.38 0.33 88 1009.8
20260505080019 11 0.0 0.0 0.00 0.38 0.33 88 1009.8
20260505075016 11 0.0 0.0 0.00 0.38 0.33 88 1009.8
20260505074020 11 0.0 0.0 0.03 0.38 0.33 88 1009.8
20260505073021 11 0.0 0.0 0.03 0.38 0.33 88 1009.8
20260505072024 12 0.0 0.0 0.03 0.38 0.33 88 1009.8
20260505071036 12 0.0 0.0 0.03 0.38 0.33 88 1009.8
20260505070023 12 0.0 0.0 0.03 0.38 0.33 87 1009.8
20260505065041 12 0.0 0.0 0.03 0.38 0.33 87 1009.9
20260505064020 12 0.0 0.0 0.00 0.36 0.30 88 1009.9
20260505063039 12 0.0 0.0 0.00 0.36 0.30 88 1009.9
20260505062027 12 0.0 0.0 0.00 0.36 0.30 87 1009.9
20260505061058 12 0.0 0.0 0.03 0.36 0.30 87 1009.9
20260505060022 12 0.0 0.0 0.05 0.36 0.30 87 1009.9
20260505055024 12 0.0 0.0 0.08 0.36 0.30 87 1010.0
20260505054018 12 0.0 0.0 0.10 0.36 0.30 87 1010.0
20260505053019 12 0.0 0.0 0.10 0.36 0.30 87 1009.9
20260505052016 12 0.0 0.0 0.15 0.36 0.30 88 1009.9
20260505051027 12 0.0 0.0 0.13 0.33 0.28 88 1009.9
20260505041024 12 0.0 0.0 0.05 0.23 0.15 87 1009.9
20260505040019 12 0.0 0.0 0.08 0.23 0.15 87 1009.9
20260505035017 12 0.0 0.0 0.08 0.23 0.15 88 1009.9
20260505034021 12 0.0 0.0 0.08 0.23 0.15 88 1010.0
20260505033016 12 0.0 0.0 0.08 0.20 0.15 87 1010.0
20260505032041 12 0.0 0.0 0.10 0.20 0.15 87 1010.1
20260505031039 12 0.0 0.0 0.10 0.18 0.13 87 1010.1
20260505030038 12 0.0 0.0 0.05 0.15 0.08 87 1010.2
20260505025016 12 0.0 0.0 0.05 0.15 0.08 87 1010.3
20260505024020 12 0.0 0.0 0.05 0.15 0.08 88 1010.3
20260505023023 12 0.0 0.0 0.05 0.13 0.05 88 1010.3
20260505022017 12 0.0 0.0 0.03 0.10 0.05 88 1010.3
20260505021021 12 0.0 0.0 0.00 0.08 0.03 88 1010.4
20260505020018 12 0.0 0.0 0.00 0.08 0.03 88 1010.4
20260505015017 12 0.0 0.0 0.00 0.08 0.03 88 1010.3
20260505014046 12 0.0 0.0 0.00 0.08 0.03 88 1010.3
20260505013017 12 0.0 0.0 0.00 0.08 0.03 88 1010.4
20260505012039 12 0.0 0.0 0.00 0.08 0.03 88 1010.5
20260505011031 12 0.0 0.0 0.00 0.08 0.03 87 1010.6
20260505010042 12 0.0 0.0 0.03 0.08 0.03 88 1010.7
20260505005017 12 0.0 0.0 0.03 0.08 0.03 88 1010.8
20260505004034 12 0.0 0.0 0.03 0.08 0.03 88 1010.9
20260505003021 12 0.0 0.0 0.03 0.08 0.03 89 1011.0
20260505002020 12 0.0 0.0 0.03 0.08 0.03 89 1011.0
20260505001020 12 0.0 0.0 0.03 0.08 0.03 89 1011.0
20260505000038 12 0.0 0.0 0.00 0.05 0.00 89 1011.1
20260504235018 12 0.0 0.0 0.00 0.05 0.00 90 1011.1
20260504234022 12 0.0 0.0 0.00 0.05 0.00 90 1011.2
20260504233100 12 0.0 0.0 0.00 0.05 0.00 90 1011.2
20260504232029 12 0.0 0.0 0.00 0.05 0.00 90 1011.3
20260504231022 12 0.0 0.0 0.00 0.05 0.00 90 1011.3
20260504230019 12 0.0 0.0 0.00 0.05 0.00 90 1011.4
20260504225020 12 0.0 0.0 0.00 0.05 0.00 90 1011.5
20260504224038 12 0.0 0.0 0.00 0.05 0.00 90 1011.6
20260504223018 13 0.0 0.0 0.00 0.05 0.00 90 1011.7
20260504222023 13 0.0 0.0 0.00 0.05 0.00 90 1011.8
20260504221047 13 0.0 0.0 0.00 0.05 0.00 90 1011.9
20260504220041 13 0.0 0.0 0.00 0.05 0.00 90 1012.0
20260504215018 13 0.0 0.0 0.00 0.05 0.05 90 1012.0
20260504214105 13 0.0 0.0 0.00 0.05 0.05 90 1012.2
20260504213017 13 0.0 0.0 0.00 0.05 0.05 90 1012.2
20260504212019 13 0.0 0.0 0.00 0.05 0.05 90 1012.2
20260504211018 13 0.0 0.0 0.00 0.05 0.05 90 1012.2
20260504210019 13 0.0 0.0 0.00 0.05 0.05 90 1012.2
20260504205040 13 0.0 0.0 0.00 0.05 0.05 90 1012.2
20260504204026 13 0.0 0.0 0.00 0.05 0.05 90 1012.2
20260504203020 13 0.0 0.0 0.00 0.05 0.05 90 1012.3
20260504202019 13 0.0 0.0 0.00 0.05 0.05 91 1012.3
20260504201019 13 0.0 0.0 0.00 0.05 0.05 91 1012.3
20260504200018 13 0.0 0.0 0.00 0.05 0.05 91 1012.3
20260504195020 14 0.0 0.0 0.00 0.05 0.05 91 1012.3
20260504194019 14 0.0 0.0 0.00 0.05 0.05 91 1012.2
20260504193025 14 0.0 0.0 0.00 0.05 0.05 91 1012.2
20260504192022 14 0.0 0.0 0.00 0.05 0.05 91 1012.1
20260504191104 14 0.0 0.0 0.00 0.05 0.05 91 1012.1
20260504190018 14 0.0 0.0 0.00 0.05 0.05 91 1012.0
20260504185023 15 0.0 0.0 0.00 0.05 0.05 91 1012.1
20260504184021 15 0.0 0.0 0.00 0.05 0.05 91 1012.1
20260504183023 15 0.0 0.0 0.00 0.05 0.05 91 1012.1
20260504182037 15 0.0 0.0 0.00 0.05 0.05 91 1012.0
20260504181037 15 0.0 0.0 0.03 0.05 0.05 91 1012.0
20260504180024 15 0.0 0.0 0.03 0.05 0.05 91 1012.1
20260504175025 15 0.0 0.0 0.03 0.05 0.05 91 1012.2
20260504174026 15 0.0 0.0 0.03 0.05 0.05 91 1012.2
20260504173026 15 0.0 0.0 0.03 0.05 0.05 91 1012.1
20260504172021 15 0.0 0.0 0.03 0.05 0.05 91 1012.1
20260504171019 15 0.0 0.0 0.00 0.05 0.05 91 1012.1